Location: Goudex
(43.3760°N, 0.9543°E)
Time: 16:23:05
(UTC+00:00)

CZ-2C R/B - Pass Details

Date: 20 November 2019
Orbit: 667 x 785 km, 98.1° (Epoch: 06 December)

Event Time Altitude Azimuth Distance (km) Brightness Sun altitude
Rises 03:58:58 0° 18° (NNE) 3,147 5.9 -31.8°
Reaches altitude 10° 04:01:21 10° 23° (NNE) 2,203 5.1 -31.4°
Enters shadow 04:05:10 45° 64° (ENE) 961 3.3 -30.7°
